KK5DC Weather Reports


Display with metric or nautical units.
time (UTC)temp
F
wind
direction
speed
MPH
gust
MPH
rain 1hr
in
rain 24hr
in
rain mn
in
humidity
%
barometer
mb
20260831120516 73 205 0.0 0.0 0.00 0.00 0.00 93 1016.4
20260831120511 73 230 0.0 0.0 0.00 0.00 0.00 93 1017.1
20260831120029 73 205 0.0 0.0 0.00 0.00 0.00 93 1016.3
20260831115515 73 205 0.0 0.0 0.00 0.00 0.00 93 1016.3
20260831115015 74 205 0.0 0.0 0.00 0.00 0.00 93 1016.4
20260831115007 74 230 0.0 0.0 0.00 0.00 0.00 93 1017.2
20260831114545 74 205 0.0 0.0 0.00 0.00 0.00 93 1016.4
20260831114508 74 230 0.0 0.0 0.00 0.00 0.00 93 1017.2
20260831114015 74 205 0.0 0.0 0.00 0.00 0.00 93 1016.4
20260831114004 74 230 0.0 0.0 0.00 0.00 0.00 93 1017.2
20260831113517 74 205 0.0 0.0 0.00 0.00 0.00 93 1016.4
20260831113504 74 230 0.0 0.0 0.00 0.00 0.00 93 1017.2
20260831113033 74 205 0.0 0.0 0.00 0.00 0.00 93 1016.3
20260831113015 74 230 0.0 0.0 0.00 0.00 0.00 93 1017.1
20260831112508 74 230 0.0 0.0 0.00 0.00 0.00 93 1017.1
20260831112008 74 230 0.0 0.0 0.00 0.00 0.00 92 1017.1
20260831112003 74 205 0.0 0.0 0.00 0.00 0.00 92 1016.4
20260831111515 74 205 0.0 0.0 0.00 0.00 0.00 92 1016.3
20260831111013 74 205 0.0 0.0 0.00 0.00 0.00 92 1016.2
20260831111008 74 230 0.0 0.0 0.00 0.00 0.00 92 1017.0
20260831110513 74 230 0.0 0.0 0.00 0.00 0.00 92 1017.0
20260831110015 75 230 0.0 0.0 0.00 0.00 0.00 92 1016.9
20260831110008 75 205 0.0 0.0 0.00 0.00 0.00 92 1016.2
20260831105511 75 205 0.0 2.0 0.00 0.00 0.00 92 1016.2
20260831105016 75 230 0.0 2.0 0.00 0.00 0.00 92 1016.9
20260831105013 75 205 0.0 3.0 0.00 0.00 0.00 92 1016.2
20260831104532 75 230 0.0 2.0 0.00 0.00 0.00 91 1016.9
20260831104514 75 184 0.0 3.0 0.00 0.00 0.00 91 1016.2
20260831104008 75 230 0.0 2.0 0.00 0.00 0.00 91 1016.9
20260831104003 75 222 2.0 3.0 0.00 0.00 0.00 91 1016.2
20260831103505 75 219 0.0 2.0 0.00 0.00 0.00 91 1016.2
20260831103503 75 230 0.0 2.0 0.00 0.00 0.00 91 1017.0
20260831103013 75 194 0.0 2.0 0.00 0.00 0.00 91 1016.9
20260831103011 75 179 1.0 3.0 0.00 0.00 0.00 91 1016.2
20260831102504 75 196 0.0 2.0 0.00 0.00 0.00 91 1016.8
20260831102007 75 156 1.0 3.0 0.00 0.00 0.00 91 1016.1
20260831101526 75 178 1.0 3.0 0.00 0.00 0.00 91 1016.1
20260831101518 75 175 0.0 2.0 0.00 0.00 0.00 91 1016.9
20260831101010 75 152 0.0 2.0 0.00 0.00 0.00 91 1017.0
20260831101003 75 167 1.0 3.0 0.00 0.00 0.00 91 1016.2
20260831100508 75 142 0.0 3.0 0.00 0.00 0.00 91 1016.2
20260831100504 75 189 0.0 2.0 0.00 0.00 0.00 91 1017.1
20260831100025 75 176 0.0 2.0 0.00 0.00 0.00 91 1017.0
20260831095512 75 147 0.0 4.0 0.00 0.00 0.00 91 1016.3
20260831095004 75 184 0.0 2.0 0.00 0.00 0.00 91 1016.9
20260831094526 75 187 0.0 2.0 0.00 0.00 0.00 90 1016.9
20260831094520 75 161 0.0 2.0 0.00 0.00 0.00 90 1016.2
20260831094014 76 161 1.0 3.0 0.00 0.00 0.00 90 1016.1
20260831093518 76 179 0.0 2.0 0.00 0.00 0.00 90 1016.9
20260831093506 76 150 1.0 3.0 0.00 0.00 0.00 90 1016.2
20260831093017 75 180 0.0 2.0 0.00 0.00 0.00 90 1016.9
20260831093009 75 148 0.0 2.0 0.00 0.00 0.00 90 1016.2
20260831092507 76 170 0.0 3.0 0.00 0.00 0.00 90 1016.2
20260831092007 75 149 0.0 2.0 0.00 0.00 0.00 90 1016.9
20260831092005 75 182 1.0 3.0 0.00 0.00 0.00 90 1016.3
20260831091521 76 159 0.0 2.0 0.00 0.00 0.00 90 1016.2
20260831091514 76 197 0.0 2.0 0.00 0.00 0.00 90 1017.0
20260831091008 76 159 0.0 2.0 0.00 0.00 0.00 90 1016.2
20260831090510 76 215 0.0 2.0 0.00 0.00 0.00 90 1016.9
20260831090027 75 189 0.0 2.0 0.00 0.00 0.00 90 1016.9
20260831090023 75 159 1.0 2.0 0.00 0.00 0.00 90 1016.2
20260831085508 76 189 0.0 0.0 0.00 0.00 0.00 89 1016.9
20260831085013 76 158 0.0 2.0 0.00 0.00 0.00 89 1016.2
20260831085011 76 189 0.0 2.0 0.00 0.00 0.00 89 1016.9
20260831084538 76 189 0.0 2.0 0.00 0.00 0.00 89 1016.9
20260831084529 76 158 0.0 2.0 0.00 0.00 0.00 89 1016.2
20260831084014 75 189 0.0 0.0 0.00 0.00 0.00 89 1016.9
20260831084005 75 158 0.0 2.0 0.00 0.00 0.00 89 1016.2
20260831083508 75 189 0.0 0.0 0.00 0.00 0.00 89 1017.0
20260831083031 76 189 0.0 0.0 0.00 0.00 0.00 89 1017.1
20260831083028 76 158 0.0 2.0 0.00 0.00 0.00 89 1016.3
20260831082516 76 158 0.0 3.0 0.00 0.00 0.00 88 1016.3
20260831082008 76 189 0.0 2.0 0.00 0.00 0.00 88 1017.0
20260831082006 76 158 1.0 3.0 0.00 0.00 0.00 88 1016.3
20260831081521 76 169 0.0 2.0 0.00 0.00 0.00 88 1016.9
20260831081511 76 167 0.0 3.0 0.00 0.00 0.00 88 1016.3
20260831081009 76 169 0.0 2.0 0.00 0.00 0.00 88 1016.9
20260831081007 76 143 0.0 4.0 0.00 0.00 0.00 88 1016.2
20260831080510 76 158 0.0 2.0 0.00 0.00 0.00 87 1016.9
20260831080505 76 166 1.0 4.0 0.00 0.00 0.00 87 1016.2
20260831080024 76 159 0.0 2.0 0.00 0.00 0.00 87 1016.9
20260831080018 76 156 1.0 3.0 0.00 0.00 0.00 87 1016.3
20260831075511 77 159 0.0 2.0 0.00 0.00 0.00 87 1017.0
20260831075017 77 185 0.0 2.0 0.00 0.00 0.00 87 1017.0
20260831075013 77 183 1.0 4.0 0.00 0.00 0.00 87 1016.3
20260831074534 77 183 0.0 2.0 0.00 0.00 0.00 87 1017.0
20260831074516 77 147 1.0 4.0 0.00 0.00 0.00 87 1016.3
20260831074013 77 158 2.0 4.0 0.00 0.00 0.00 86 1016.3
20260831073514 77 173 1.0 6.0 0.00 0.00 0.00 86 1016.2
20260831073512 77 171 0.0 2.0 0.00 0.00 0.00 86 1017.0
20260831073059 77 173 0.0 2.0 0.00 0.00 0.00 86 1016.9
20260831073010 77 150 1.0 6.0 0.00 0.00 0.00 86 1016.2
20260831072509 77 166 2.0 6.0 0.00 0.00 0.00 86 1016.2
20260831072507 77 189 0.0 2.0 0.00 0.00 0.00 86 1016.8
20260831072014 77 149 1.0 4.0 0.00 0.00 0.00 86 1016.2
20260831072012 77 192 0.0 3.0 0.00 0.00 0.00 86 1016.9
20260831071539 77 163 1.0 3.0 0.00 0.00 0.00 86 1016.2
20260831071533 77 160 0.0 3.0 0.00 0.00 0.00 86 1017.1
20260831071008 77 174 0.0 2.0 0.00 0.00 0.00 85 1017.2
20260831071006 77 153 1.0 5.0 0.00 0.00 0.00 85 1016.4
20260831070507 77 163 0.0 2.0 0.00 0.00 0.00 85 1017.2
20260831070031 77 164 0.0 2.0 0.00 0.00 0.00 85 1017.2
20260831070016 77 191 1.0 5.0 0.00 0.00 0.00 85 1016.5
20260831065512 77 192 0.0 2.0 0.00 0.00 0.00 85 1017.2
20260831065507 77 179 1.0 4.0 0.00 0.00 0.00 85 1016.5
20260831065013 78 169 1.0 4.0 0.00 0.00 0.00 84 1016.4
20260831065011 78 192 0.0 2.0 0.00 0.00 0.00 84 1017.2
20260831064533 78 165 0.0 2.0 0.00 0.00 0.00 84 1017.3
20260831064525 78 159 1.0 4.0 0.00 0.00 0.00 84 1016.4
20260831064010 78 167 1.0 3.0 0.00 0.00 0.00 83 1016.5
20260831063508 78 193 0.0 2.0 0.00 0.00 0.00 82 1017.2
20260831063028 78 193 0.0 2.0 0.00 0.00 0.00 82 1017.3
20260831062517 78 157 1.0 5.0 0.00 0.00 0.00 82 1016.5
20260831062017 78 192 0.0 2.0 0.00 0.00 0.00 81 1017.2
20260831061532 79 194 0.0 2.0 0.00 0.00 0.00 80 1017.2
20260831061524 79 183 2.0 4.0 0.00 0.00 0.00 80 1016.4
20260831061017 79 157 0.0 6.0 0.00 0.00 0.00 80 1016.4
20260831061014 79 169 0.0 2.0 0.00 0.00 0.00 80 1017.1
20260831060517 79 173 0.0 2.0 0.00 0.00 0.00 79 1017.1
20260831060024 79 173 0.0 2.0 0.00 0.00 0.00 79 1017.0
20260831060012 79 194 3.0 6.0 0.00 0.00 0.00 79 1016.3
20260831055510 79 165 0.0 5.0 0.00 0.00 0.00 78 1017.0
20260831055507 79 167 3.0 6.0 0.00 0.00 0.00 78 1016.3
20260831055012 79 146 2.0 6.0 0.00 0.00 0.00 78 1016.3
20260831055009 79 171 1.0 5.0 0.00 0.00 0.00 78 1017.0
20260831054525 79 237 0.0 2.0 0.00 0.00 0.00 77 1017.0
20260831054523 79 138 2.0 5.0 0.00 0.00 0.00 77 1016.3
20260831054008 80 195 0.0 2.0 0.00 0.00 0.00 77 1017.1
20260831053513 80 171 0.0 2.0 0.00 0.00 0.00 76 1017.1
20260831053034 80 161 0.0 2.0 0.00 0.00 0.00 76 1017.0
20260831053027 80 158 2.0 6.0 0.00 0.00 0.00 76 1016.2
20260831052511 80 60 0.0 2.0 0.00 0.00 0.00 75 1016.9
20260831052508 80 167 1.0 4.0 0.00 0.00 0.00 75 1016.2
20260831052014 80 47 0.0 2.0 0.00 0.00 0.00 75 1016.8
20260831052012 80 186 1.0 4.0 0.00 0.00 0.00 75 1016.1
20260831051541 80 166 1.0 5.0 0.00 0.00 0.00 74 1016.0
20260831051531 80 183 0.0 2.0 0.00 0.00 0.00 74 1016.8
20260831051016 81 182 0.0 2.0 0.00 0.00 0.00 74 1016.6
20260831051014 81 171 1.0 5.0 0.00 0.00 0.00 74 1015.9
20260831050518 81 172 0.0 3.0 0.00 0.00 0.00 74 1016.6
20260831050510 81 170 1.0 5.0 0.00 0.00 0.00 74 1016.0
20260831050042 81 165 0.0 3.0 0.00 0.00 0.00 74 1016.6
20260831050032 81 184 1.0 5.0 0.00 0.00 0.00 74 1015.9
20260831045516 81 136 2.0 5.0 0.00 0.00 0.00 73 1015.9
20260831045010 81 171 0.0 2.0 0.00 0.00 0.00 72 1016.6
20260831044520 81 182 0.0 2.0 0.00 0.00 0.00 72 1016.6
20260831044013 82 151 0.0 2.0 0.00 0.00 0.00 72 1016.6
20260831044009 82 122 1.0 6.0 0.00 0.00 0.00 72 1016.0
20260831043511 82 167 0.0 2.0 0.00 0.00 0.00 72 1016.6
20260831043509 82 169 2.0 5.0 0.00 0.00 0.00 72 1015.8
20260831043028 82 169 0.0 2.0 0.00 0.00 0.00 72 1016.7
20260831043026 82 150 2.0 5.0 0.00 0.00 0.00 72 1015.9
20260831042513 82 162 1.0 4.0 0.00 0.00 0.00 71 1015.8
20260831042015 82 160 2.0 5.0 0.00 0.00 0.00 71 1015.9
20260831042012 82 163 0.0 3.0 0.00 0.00 0.00 71 1016.7
20260831041519 82 167 0.0 3.0 0.00 0.00 0.00 71 1016.7
20260831041012 82 165 0.0 3.0 0.00 0.00 0.00 70 1016.7
20260831040516 83 169 0.0 3.0 0.00 0.00 0.00 70 1016.6
20260831040045 83 160 0.0 3.0 0.00 0.00 0.00 70 1016.6
20260831040040 83 180 3.0 8.0 0.00 0.00 0.00 70 1015.8
20260831035513 83 150 2.0 8.0 0.00 0.00 0.00 69 1015.7
20260831035511 83 170 0.0 3.0 0.00 0.00 0.00 69 1016.5
20260831035017 83 194 2.0 7.0 0.00 0.00 0.00 69 1015.6
20260831035015 83 186 1.0 3.0 0.00 0.00 0.00 69 1016.4
20260831034534 84 163 3.0 9.0 0.00 0.00 0.00 68 1015.6
20260831034016 84 171 0.0 3.0 0.00 0.00 0.00 68 1016.3
20260831034007 84 154 3.0 9.0 0.00 0.00 0.00 68 1015.6
20260831033508 84 187 1.0 3.0 0.00 0.00 0.00 68 1016.3
20260831033026 84 165 2.0 8.0 0.00 0.00 0.00 67 1015.4
20260831033024 84 198 0.0 5.0 0.00 0.00 0.00 67 1016.2
20260831032513 84 154 4.0 9.0 0.00 0.00 0.00 67 1015.3
20260831032011 84 88 0.0 3.0 0.00 0.00 0.00 66 1015.8
20260831031527 84 207 1.0 3.0 0.00 0.00 0.00 66 1015.9
20260831031014 84 213 1.0 2.0 0.00 0.00 0.00 66 1015.8
20260831030516 84 240 0.0 2.0 0.00 0.00 0.00 67 1015.7
20260831030510 84 142 1.0 6.0 0.00 0.00 0.00 67 1015.0
20260831030041 84 221 0.0 2.0 0.00 0.00 0.00 67 1015.7
20260831030028 84 153 1.0 6.0 0.00 0.00 0.00 67 1014.9
20260831025516 84 171 2.0 6.0 0.00 0.00 0.00 65 1014.8
20260831025016 84 159 1.0 5.0 0.00 0.00 0.00 65 1014.7
20260831025005 84 172 0.0 2.0 0.00 0.00 0.00 65 1015.5
20260831024525 84 143 1.0 5.0 0.00 0.00 0.00 65 1014.6
20260831024511 84 185 0.0 2.0 0.00 0.00 0.00 65 1015.4
20260831024017 85 160 1.0 5.0 0.00 0.00 0.00 64 1014.6
20260831024003 85 192 0.0 2.0 0.00 0.00 0.00 64 1015.3
20260831023516 85 157 1.0 7.0 0.00 0.00 0.00 64 1014.5
20260831023504 85 165 0.0 2.0 0.00 0.00 0.00 64 1015.3
20260831023034 85 165 1.0 7.0 0.00 0.00 0.00 63 1014.5
20260831023021 85 117 0.0 2.0 0.00 0.00 0.00 63 1015.2
20260831022503 85 140 1.0 3.0 0.00 0.00 0.00 63 1014.5
20260831022003 85 116 0.0 5.0 0.00 0.00 0.00 62 1014.5
20260831021518 86 178 0.0 3.0 0.00 0.00 0.00 62 1015.0
20260831021516 86 205 1.0 7.0 0.00 0.00 0.00 62 1014.3
20260831021003 86 166 1.0 7.0 0.00 0.00 0.00 62 1014.2
20260831020506 86 142 1.0 3.0 0.00 0.00 0.00 62 1014.9
20260831020504 86 128 2.0 6.0 0.00 0.00 0.00 62 1014.1
20260831020006 86 161 2.0 6.0 0.00 0.00 0.00 62 1014.0
20260831015503 86 186 1.0 3.0 0.00 0.00 0.00 61 1014.7
20260831015007 87 185 1.0 3.0 0.00 0.00 0.00 61 1014.7
20260831015002 87 129 3.0 10.0 0.00 0.00 0.00 61 1014.0
20260831014510 87 105 3.0 10.0 0.00 0.00 0.00 61 1013.9
20260831014008 87 148 2.0 8.0 0.00 0.00 0.00 61 1013.8
20260831013509 87 130 1.0 5.0 0.00 0.00 0.00 60 1014.5
20260831013507 87 163 2.0 6.0 0.00 0.00 0.00 60 1013.8
20260831013008 88 199 0.0 5.0 0.00 0.00 0.00 60 1014.4
20260831013006 88 173 2.0 12.0 0.00 0.00 0.00 60 1013.8
20260831012506 88 155 5.0 12.0 0.00 0.00 0.00 59 1013.7
20260831012504 88 178 1.0 5.0 0.00 0.00 0.00 59 1014.5
20260831012011 88 141 1.0 7.0 0.00 0.00 0.00 58 1014.5
20260831012008 88 150 5.0 10.0 0.00 0.00 0.00 58 1013.7
20260831011533 89 153 4.0 10.0 0.00 0.00 0.00 58 1013.7
20260831011003 89 155 1.0 5.0 0.00 0.00 0.00 57 1014.5
20260831010510 89 126 3.0 12.0 0.00 0.00 0.00 56 1013.6
20260831010508 89 136 1.0 5.0 0.00 0.00 0.00 56 1014.4
20260831010007 89 138 4.0 12.0 0.00 0.00 0.00 55 1013.5
20260831005504 89 128 3.0 10.0 0.00 0.00 0.00 56 1013.4
20260831005006 88 98 2.0 7.0 0.00 0.00 0.00 55 1013.4
20260831005004 88 155 1.0 2.0 0.00 0.00 0.00 55 1014.2
20260831004514 88 102 0.0 2.0 0.00 0.00 0.00 54 1014.2
20260831004510 88 103 0.0 2.0 0.00 0.00 0.00 54 1013.3
20260831004004 89 104 0.0 2.0 0.00 0.00 0.00 55 1013.2
20260831003504 90 88 0.0 4.0 0.00 0.00 0.00 53 1014.2
20260831003018 91 180 0.0 4.0 0.00 0.00 0.00 51 1014.0
20260831003014 91 77 0.0 4.0 0.00 0.00 0.00 51 1013.1
20260831002507 91 117 1.0 4.0 0.00 0.00 0.00 49 1013.8
20260831002004 92 271 0.0 6.0 0.00 0.00 0.00 49 1013.7
20260831001512 92 106 1.0 6.0 0.00 0.00 0.00 49 1013.0
20260831001012 93 94 1.0 4.0 0.00 0.00 0.00 47 1013.0
20260831001010 93 115 1.0 4.0 0.00 0.00 0.00 47 1013.9
20260831000514 93 101 0.0 6.0 0.00 0.00 0.00 47 1013.1
20260831000512 93 238 1.0 6.0 0.00 0.00 0.00 47 1013.9
20260831000011 93 167 2.0 6.0 0.00 0.00 0.00 46 1013.7
20260831000008 93 65 1.0 10.0 0.00 0.00 0.00 46 1013.1
20260830235509 93 137 1.0 10.0 0.00 0.00 0.00 45 1013.0
20260830235506 93 213 1.0 7.0 0.00 0.00 0.00 45 1013.8
20260830235004 94 137 0.0 7.0 0.00 0.00 0.00 47 1013.8
20260830234510 94 83 1.0 11.0 0.00 0.00 0.00 46 1013.1
20260830234505 94 144 1.0 7.0 0.00 0.00 0.00 46 1013.9
20260830234005 95 157 4.0 11.0 0.00 0.00 0.00 44 1013.3
20260830233509 95 141 2.0 9.0 0.00 0.00 0.00 44 1014.1
20260830233503 95 64 2.0 10.0 0.00 0.00 0.00 44 1013.3
20260830233019 95 230 1.0 9.0 0.00 0.00 0.00 44 1014.0
20260830233012 95 163 5.0 10.0 0.00 0.00 0.00 44 1013.3
20260830232505 95 162 2.0 3.0 0.00 0.00 0.00 42 1013.9
20260830232007 95 77 1.0 5.0 0.00 0.00 0.00 41 1013.2
20260830231518 95 153 0.0 4.0 0.00 0.00 0.00 41 1014.1
20260830231003 96 137 4.0 10.0 0.00 0.00 0.00 40 1013.3
20260830230511 96 131 2.0 7.0 0.00 0.00 0.00 41 1013.3
20260830230506 96 111 0.0 4.0 0.00 0.00 0.00 41 1014.1
20260830230039 96 86 1.0 6.0 0.00 0.00 0.00 40 1013.2
20260830230026 96 115 2.0 4.0 0.00 0.00 0.00 40 1014.0
20260830225513 96 69 1.0 4.0 0.00 0.00 0.00 38 1013.2
20260830225511 96 162 1.0 4.0 0.00 0.00 0.00 38 1013.9
20260830225004 96 168 0.0 4.0 0.00 0.00 0.00 42 1013.9
20260830224518 96 97 0.0 7.0 0.00 0.00 0.00 40 1013.2
20260830224015 97 200 4.0 7.0 0.00 0.00 0.00 40 1013.2
20260830224004 97 160 2.0 6.0 0.00 0.00 0.00 40 1014.1
20260830223503 97 236 0.0 2.0 0.00 0.00 0.00 40 1014.1
20260830223013 98 185 1.0 4.0 0.00 0.00 0.00 38 1014.2
20260830223009 98 167 4.0 13.0 0.00 0.00 0.00 38 1013.4
20260830222505 98 209 1.0 4.0 0.00 0.00 0.00 39 1014.1
20260830222503 98 151 3.0 13.0 0.00 0.00 0.00 39 1013.3
20260830222006 98 156 3.0 7.0 0.00 0.00 0.00 39 1013.3
20260830221513 98 196 3.0 11.0 0.00 0.00 0.00 40 1013.3
20260830221511 98 234 1.0 6.0 0.00 0.00 0.00 40 1014.0
20260830221011 98 220 5.0 11.0 0.00 0.00 0.00 40 1013.3
20260830221007 98 235 2.0 6.0 0.00 0.00 0.00 40 1014.2
20260830220510 98 219 0.0 4.0 0.00 0.00 0.00 40 1014.3
20260830220027 98 148 3.0 7.0 0.00 0.00 0.00 41 1013.5
20260830220016 98 218 1.0 3.0 0.00 0.00 0.00 41 1014.3
20260830215509 96 175 1.0 3.0 0.00 0.00 0.00 41 1014.4
20260830215504 96 167 2.0 5.0 0.00 0.00 0.00 41 1013.5
20260830215013 98 138 2.0 7.0 0.00 0.00 0.00 39 1013.5
20260830215011 98 157 1.0 3.0 0.00 0.00 0.00 39 1014.3
20260830214528 98 90 2.0 5.0 0.00 0.00 0.00 41 1014.4
20260830214006 98 135 1.0 8.0 0.00 0.00 0.00 41 1013.6
20260830214004 98 63 1.0 6.0 0.00 0.00 0.00 41 1014.5
20260830213508 98 205 2.0 6.0 0.00 0.00 0.00 40 1014.5
20260830213029 98 132 2.0 9.0 0.00 0.00 0.00 40 1013.7
20260830213010 98 126 2.0 7.0 0.00 0.00 0.00 40 1014.5
20260830212504 98 134 1.0 8.0 0.00 0.00 0.00 40 1014.6
20260830212006 98 167 2.0 9.0 0.00 0.00 0.00 41 1013.9
20260830211518 98 211 3.0 8.0 0.00 0.00 0.00 41 1014.0
20260830211514 98 139 1.0 7.0 0.00 0.00 0.00 41 1015.0
20260830211008 97 118 3.0 7.0 0.00 0.00 0.00 44 1015.0
20260830210507 95 191 0.0 4.0 0.00 0.00 0.00 46 1015.0
20260830210024 97 143 1.0 4.0 0.00 0.00 0.00 44 1015.0
20260830210018 97 160 3.0 12.0 0.00 0.00 0.00 44 1014.3
20260830205516 97 190 1.0 7.0 0.00 0.00 0.00 42 1015.1
20260830205514 97 146 4.0 12.0 0.00 0.00 0.00 42 1014.4
20260830205011 98 190 3.0 10.0 0.00 0.00 0.00 43 1014.4
20260830205007 98 153 1.0 7.0 0.00 0.00 0.00 43 1015.2
20260830204513 99 191 1.0 5.0 0.00 0.00 0.00 44 1015.3
20260830204011 99 150 1.0 6.0 0.00 0.00 0.00 41 1015.3
20260830204009 99 159 4.0 10.0 0.00 0.00 0.00 41 1014.5
20260830203515 98 169 3.0 10.0 0.00 0.00 0.00 42 1014.6
20260830203513 98 145 2.0 5.0 0.00 0.00 0.00 42 1015.4
20260830203013 98 184 3.0 8.0 0.00 0.00 0.00 41 1014.7
20260830202511 98 94 3.0 10.0 0.00 0.00 0.00 42 1014.9
20260830202508 98 200 1.0 6.0 0.00 0.00 0.00 42 1015.5
20260830202018 98 109 3.0 9.0 0.00 0.00 0.00 43 1015.0
20260830202005 98 114 1.0 6.0 0.00 0.00 0.00 43 1015.7
20260830201509 97 161 2.0 7.0 0.00 0.00 0.00 44 1015.0
20260830201004 97 261 1.0 3.0 0.00 0.00 0.00 44 1015.9
20260830200510 98 208 1.0 8.0 0.00 0.00 0.00 43 1016.0
20260830200508 98 90 2.0 10.0 0.00 0.00 0.00 43 1015.3
20260830200027 98 58 2.0 8.0 0.00 0.00 0.00 43 1016.0
20260830200015 98 92 5.0 10.0 0.00 0.00 0.00 43 1015.3
20260830195504 99 168 2.0 6.0 0.00 0.00 0.00 43 1016.0
20260830195008 98 145 1.0 6.0 0.00 0.00 0.00 44 1016.0
20260830194526 98 219 1.0 5.0 0.00 0.00 0.00 43 1016.2
20260830194015 97 148 2.0 8.0 0.00 0.00 0.00 44 1015.6
20260830194001 97 168 1.0 5.0 0.00 0.00 0.00 44 1016.3
20260830193507 98 128 2.0 11.0 0.00 0.00 0.00 43 1015.7
20260830193033 96 219 5.0 11.0 0.00 0.00 0.00 46 1015.7
20260830193025 96 197 1.0 5.0 0.00 0.00 0.00 46 1016.3
20260830192514 95 149 2.0 5.0 0.00 0.00 0.00 49 1016.4
20260830192004 97 167 3.0 9.0 0.00 0.00 0.00 46 1016.0
20260830191605 96 180 1.0 3.0 0.00 0.00 0.00 48 1017.0
20260830191525 96 163 5.0 8.0 0.00 0.00 0.00 48 1016.2
20260830191012 95 196 3.0 12.0 0.00 0.00 0.00 47 1016.2
20260830191006 95 173 1.0 7.0 0.00 0.00 0.00 47 1017.0
20260830190519 94 189 3.0 12.0 0.00 0.00 0.00 51 1016.4
20260830190504 94 198 1.0 7.0 0.00 0.00 0.00 51 1017.1
20260830190015 95 126 4.0 10.0 0.00 0.00 0.00 50 1016.4
20260830185508 95 53 3.0 10.0 0.00 0.00 0.00 51 1016.4
20260830185013 94 194 2.0 7.0 0.00 0.00 0.00 51 1017.2
20260830185008 94 223 4.0 10.0 0.00 0.00 0.00 51 1016.6
20260830184520 95 175 6.0 10.0 0.00 0.00 0.00 52 1016.6
20260830184515 95 121 3.0 7.0 0.00 0.00 0.00 52 1017.5
20260830184010 93 175 1.0 7.0 0.00 0.00 0.00 50 1017.5
20260830183511 94 138 1.0 7.0 0.00 0.00 0.00 49 1016.7
20260830183027 93 126 4.0 6.0 0.00 0.00 0.00 55 1016.8
20260830182511 92 223 1.0 3.0 0.00 0.00 0.00 54 1017.7
20260830182509 92 141 2.0 6.0 0.00 0.00 0.00 54 1016.9
20260830182014 92 107 1.0 4.0 0.00 0.00 0.00 54 1017.8
20260830182012 92 209 2.0 10.0 0.00 0.00 0.00 54 1017.1
20260830181533 94 171 2.0 10.0 0.00 0.00 0.00 51 1017.1
20260830181530 94 147 2.0 4.0 0.00 0.00 0.00 51 1017.9
20260830181015 92 99 1.0 6.0 0.00 0.00 0.00 57 1017.1
20260830181003 92 122 0.0 4.0 0.00 0.00 0.00 57 1017.9
20260830180509 93 207 1.0 8.0 0.00 0.00 0.00 54 1017.1
20260830180507 93 208 0.0 4.0 0.00 0.00 0.00 54 1018.0
20260830180049 94 144 4.0 8.0 0.00 0.00 0.00 53 1017.2
20260830180012 94 228 2.0 4.0 0.00 0.00 0.00 53 1017.9
20260830175515 94 185 4.0 9.0 0.00 0.00 0.00 53 1017.2
20260830175505 94 160 1.0 5.0 0.00 0.00 0.00 53 1018.1
20260830175010 93 236 1.0 5.0 0.00 0.00 0.00 54 1018.2
20260830174522 94 86 2.0 8.0 0.00 0.00 0.00 54 1017.5
20260830174516 94 137 1.0 5.0 0.00 0.00 0.00 54 1018.3
20260830174013 93 194 1.0 5.0 0.00 0.00 0.00 53 1018.3
20260830174007 93 144 2.0 10.0 0.00 0.00 0.00 53 1017.5
20260830173511 93 153 4.0 10.0 0.00 0.00 0.00 53 1017.5
20260830173507 93 145 2.0 5.0 0.00 0.00 0.00 53 1018.4
20260830173040 93 77 3.0 7.0 0.00 0.00 0.00 54 1017.7
20260830173021 93 27 1.0 3.0 0.00 0.00 0.00 54 1018.4
20260830172514 93 17 1.0 5.0 0.00 0.00 0.00 54 1018.4
20260830172510 93 107 1.0 10.0 0.00 0.00 0.00 54 1017.6
20260830172016 91 150 1.0 7.0 0.00 0.00 0.00 58 1018.6
20260830172013 91 214 4.0 11.0 0.00 0.00 0.00 58 1017.8
20260830171518 91 212 6.0 11.0 0.00 0.00 0.00 56 1017.8
20260830171516 91 245 2.0 7.0 0.00 0.00 0.00 56 1018.7
20260830171013 92 161 2.0 5.0 0.00 0.00 0.00 55 1018.7
20260830170516 92 190 1.0 5.0 0.00 0.00 0.00 58 1018.7
20260830170034 91 189 3.0 9.0 0.00 0.00 0.00 58 1018.0
20260830170012 91 159 1.0 5.0 0.00 0.00 0.00 58 1018.8
20260830165511 90 267 4.0 9.0 0.00 0.00 0.00 60 1018.0
20260830165507 90 223 2.0 3.0 0.00 0.00 0.00 60 1018.8
20260830165013 89 172 3.0 8.0 0.00 0.00 0.00 61 1018.0
20260830165007 89 236 2.0 5.0 0.00 0.00 0.00 61 1018.9
20260830164530 89 165 4.0 9.0 0.00 0.00 0.00 62 1018.3
20260830164515 89 170 1.0 6.0 0.00 0.00 0.00 62 1019.1
20260830164009 89 191 5.0 9.0 0.00 0.00 0.00 63 1018.3
20260830164006 89 259 1.0 6.0 0.00 0.00 0.00 63 1019.1
20260830163510 91 252 3.0 12.0 0.00 0.00 0.00 60 1018.3
20260830163507 91 237 2.0 5.0 0.00 0.00 0.00 60 1019.2
20260830163034 90 156 2.0 5.0 0.00 0.00 0.00 62 1019.3
20260830163023 90 186 6.0 11.0 0.00 0.00 0.00 62 1018.3
20260830162514 90 196 4.0 9.0 0.00 0.00 0.00 62 1018.3
20260830162505 90 248 3.0 5.0 0.00 0.00 0.00 62 1019.2
20260830162009 90 123 3.0 9.0 0.00 0.00 0.00 62 1018.3
20260830161528 89 235 1.0 4.0 0.00 0.00 0.00 65 1019.3
20260830161019 88 214 1.0 3.0 0.00 0.00 0.00 65 1019.2
20260830161013 88 200 3.0 7.0 0.00 0.00 0.00 65 1018.4
20260830160509 87 180 3.0 8.0 0.00 0.00 0.00 69 1018.5
20260830160507 87 173 1.0 4.0 0.00 0.00 0.00 69 1019.3
20260830160036 86 147 0.0 5.0 0.00 0.00 0.00 68 1019.3
20260830160027 86 169 4.0 8.0 0.00 0.00 0.00 68 1018.5
20260830155516 86 238 0.0 5.0 0.00 0.00 0.00 71 1019.3
20260830155018 85 219 4.0 8.0 0.00 0.00 0.00 71 1018.4
20260830155012 85 219 1.0 4.0 0.00 0.00 0.00 71 1019.3
20260830154524 85 213 2.0 11.0 0.00 0.00 0.00 73 1018.3
20260830154510 85 248 0.0 4.0 0.00 0.00 0.00 73 1019.2
20260830154011 85 219 6.0 11.0 0.00 0.00 0.00 73 1018.3
20260830154005 85 177 0.0 4.0 0.00 0.00 0.00 73 1019.3
20260830153518 85 196 5.0 10.0 0.00 0.00 0.00 73 1018.3
20260830153508 85 191 2.0 4.0 0.00 0.00 0.00 73 1019.1
20260830153018 85 210 5.0 9.0 0.00 0.00 0.00 74 1018.3
20260830153016 85 207 1.0 5.0 0.00 0.00 0.00 74 1019.1
20260830152510 85 178 0.0 5.0 0.00 0.00 0.00 74 1019.1
20260830152508 85 150 4.0 10.0 0.00 0.00 0.00 74 1018.3
20260830152012 84 169 3.0 9.0 0.00 0.00 0.00 75 1018.3
20260830152010 84 158 1.0 4.0 0.00 0.00 0.00 75 1019.2
20260830151526 85 177 5.0 8.0 0.00 0.00 0.00 75 1018.2
20260830151516 85 150 1.0 4.0 0.00 0.00 0.00 75 1019.1
20260830151017 85 198 2.0 5.0 0.00 0.00 0.00 76 1019.1
20260830151010 85 158 5.0 8.0 0.00 0.00 0.00 76 1018.2
20260830150515 83 211 4.0 9.0 0.00 0.00 0.00 78 1018.2
20260830150512 83 253 2.0 5.0 0.00 0.00 0.00 78 1019.1
20260830150036 84 200 4.0 9.0 0.00 0.00 0.00 79 1018.3
20260830145514 83 150 3.0 8.0 0.00 0.00 0.00 81 1018.3
20260830145508 83 180 1.0 5.0 0.00 0.00 0.00 81 1019.1
20260830145013 82 220 4.0 9.0 0.00 0.00 0.00 83 1018.2
20260830145004 82 217 1.0 5.0 0.00 0.00 0.00 83 1019.1
20260830144533 81 205 3.0 8.0 0.00 0.00 0.00 84 1018.2
20260830144517 81 179 0.0 5.0 0.00 0.00 0.00 84 1019.0
20260830144014 81 213 6.0 8.0 0.00 0.00 0.00 85 1018.2
20260830144005 81 204 1.0 5.0 0.00 0.00 0.00 85 1019.0
20260830143516 80 209 4.0 9.0 0.00 0.00 0.00 85 1018.2
20260830143506 80 217 2.0 4.0 0.00 0.00 0.00 85 1019.0
20260830143031 80 177 7.0 9.0 0.00 0.00 0.00 86 1018.2
20260830143006 80 192 0.0 5.0 0.00 0.00 0.00 86 1019.0
20260830142504 80 134 3.0 5.0 0.00 0.00 0.00 85 1018.9
20260830142502 80 221 4.0 7.0 0.00 0.00 0.00 85 1018.1
20260830142008 80 220 1.0 3.0 0.00 0.00 0.00 86 1018.8
20260830142002 80 227 4.0 9.0 0.00 0.00 0.00 86 1018.1
20260830141523 80 226 2.0 4.0 0.00 0.00 0.00 86 1018.8
20260830141509 80 213 5.0 9.0 0.00 0.00 0.00 86 1018.0
20260830141004 79 220 4.0 6.0 0.00 0.00 0.00 88 1018.0
20260830140508 79 242 0.0 3.0 0.00 0.00 0.00 89 1018.9
20260830140502 79 215 2.0 6.0 0.00 0.00 0.00 89 1018.0
20260830140026 78 226 1.0 4.0 0.00 0.00 0.00 89 1018.9
20260830140007 78 207 4.0 7.0 0.00 0.00 0.00 89 1018.1
20260830135505 78 244 1.0 4.0 0.00 0.00 0.00 89 1018.9
20260830135004 78 205 1.0 4.0 0.00 0.00 0.00 89 1018.9
20260830135002 78 226 4.0 6.0 0.00 0.00 0.00 89 1018.0
20260830134507 78 234 0.0 2.0 0.00 0.00 0.00 90 1018.7
20260830134503 78 197 3.0 6.0 0.00 0.00 0.00 90 1017.9
20260830134004 78 168 0.0 2.0 0.00 0.00 0.00 90 1018.7
20260830133504 78 177 0.0 2.0 0.00 0.00 0.00 91 1018.7
20260830133501 78 159 4.0 6.0 0.00 0.00 0.00 91 1017.9
20260830133013 77 153 1.0 3.0 0.00 0.00 0.00 91 1018.6
20260830133003 77 171 3.0 7.0 0.00 0.00 0.00 91 1017.8
20260830132510 77 183 0.0 3.0 0.00 0.00 0.00 91 1018.6
20260830132502 77 175 2.0 7.0 0.00 0.00 0.00 91 1017.8
20260830132004 77 168 1.0 3.0 0.00 0.00 0.00 91 1018.5
20260830131517 77 158 0.0 2.0 0.00 0.00 0.00 91 1018.5
20260830131504 77 163 3.0 8.0 0.00 0.00 0.00 91 1017.7
20260830131007 77 212 0.0 2.0 0.00 0.00 0.00 91 1018.5
20260830131003 77 189 2.0 8.0 0.00 0.00 0.00 91 1017.7
20260830130512 77 190 0.0 2.0 0.00 0.00 0.00 91 1018.5
20260830130503 77 176 2.0 8.0 0.00 0.00 0.00 91 1017.7
20260830130010 76 197 0.0 2.0 0.00 0.00 0.00 91 1018.5
20260830130004 76 155 3.0 5.0 0.00 0.00 0.00 91 1017.6
20260830125506 76 228 0.0 2.0 0.00 0.00 0.00 91 1018.4
20260830125502 76 169 0.0 3.0 0.00 0.00 0.00 91 1017.6
20260830125012 76 177 0.0 2.0 0.00 0.00 0.00 92 1018.3
20260830125002 76 169 1.0 4.0 0.00 0.00 0.00 92 1017.5
20260830124532 76 182 0.0 2.0 0.00 0.00 0.00 92 1018.3
20260830124504 76 166 2.0 4.0 0.00 0.00 0.00 92 1017.4
20260830124006 76 178 0.0 2.0 0.00 0.00 0.00 92 1018.2
20260830124002 76 152 1.0 3.0 0.00 0.00 0.00 92 1017.5
20260830123504 76 196 0.0 2.0 0.00 0.00 0.00 92 1018.2
20260830123502 76 142 1.0 4.0 0.00 0.00 0.00 92 1017.4
20260830123013 75 194 0.0 2.0 0.00 0.00 0.00 92 1018.1
20260830123008 75 182 2.0 5.0 0.00 0.00 0.00 92 1017.3
20260830122504 75 187 0.0 2.0 0.00 0.00 0.00 92 1018.0
20260830122008 75 193 0.0 2.0 0.00 0.01 0.00 92 1017.9
20260830122003 75 175 2.0 6.0 0.00 0.01 0.00 92 1017.2
20260830121518 75 206 0.0 2.0 0.00 0.01 0.00 92 1017.9
20260830121503 75 186 3.0 6.0 0.00 0.01 0.00 92 1017.1
20260830121010 75 222 0.0 2.0 0.00 0.01 0.00 92 1017.8
20260830121002 75 184 1.0 5.0 0.00 0.01 0.00 92 1017.1